Printer-friendly version

IAU Minor Planet Center

Minor Planet Center

MPEC 2006-O38 : 2006 OV5

The following Minor Planet Electronic Circular may be linked-to from your own Web pages, but must not otherwise be redistributed electronically.


Read MPEC 2006-O37 Read MPEC 2006-O39


M.P.E.C. 2006-O38                                Issued 2006 July 24, 15:25 UT

     The Minor Planet Electronic Circulars contain information on unusual
         minor planets and routine data on comets.  They are published
   on behalf of Commission 20 of the International Astronomical Union by the
          Minor Planet Center, Smithsonian Astrophysical Observatory,
                          Cambridge, MA 02138, U.S.A.

                  Supported in part by the Brinson Foundation
                  Supported in part by the TABASGO Foundation
             Prepared using the Tamkin Foundation Computer Network

                              MPC@CFA.HARVARD.EDU
          URL http://cfa-www.harvard.edu/iau/mpc.html  ISSN 1523-6714

                                   2006 OV5

Observations:
     K06O05V* C2006 07 21.43873 02 10 20.53 +12 47 46.8          20.8 V EO038G96
     K06O05V  C2006 07 21.44318 02 10 21.36 +12 47 44.6          21.0 V EO038G96
     K06O05V  C2006 07 21.44764 02 10 22.18 +12 47 42.6          20.7 V EO038G96
     K06O05V  C2006 07 21.45218 02 10 23.01 +12 47 40.6          20.7 V EO038G96
     K06O05V  C2006 07 21.47088 02 10 26.54 +12 47 32.0          20.9 V EO038G96
     K06O05V  C2006 07 21.47141 02 10 26.65 +12 47 31.5          20.9 V EO038G96
     K06O05V  C2006 07 21.47197 02 10 26.76 +12 47 31.3          21.7 V EO038G96
     K06O05V  C2006 07 21.47251 02 10 26.86 +12 47 31.0          20.8 V EO038G96
     K06O05V  C2006 07 22.43023 02 13 28.25 +12 39 44.3                 EO038G96
     K06O05V  C2006 07 22.43509 02 13 29.23 +12 39 41.3          21.2 V EO038G96
     K06O05V  C2006 07 22.44483 02 13 31.09 +12 39 36.5          21.3 V EO038G96
     K06O05V  C2006 07 22.46544 02 13 34.86 +12 39 27.4          20.4 V EO038G96
     K06O05V  C2006 07 22.46632 02 13 35.00 +12 39 26.1          20.4 V EO038G96
     K06O05V  C2006 07 22.46720 02 13 35.18 +12 39 26.3          20.7 V EO038G96
     K06O05V  C2006 07 22.46809 02 13 35.36 +12 39 25.8          20.7 V EO038G96
     K06O05V  C2006 07 23.36527 02 16 23.02 +12 31 51.6          21.0 R EO038734
     K06O05V  C2006 07 23.37552 02 16 25.02 +12 31 46.0          21.6 R EO038734
     K06O05V  C2006 07 23.38578 02 16 26.98 +12 31 41.4          21.5 R EO038734

Observer details:
734 Farpoint Observatory.  Observer D. Tibbets.  Measurer G. Hug.  0.7-m
    reflector + CCD.
G96 Mt. Lemmon Survey.  Observer E. J. Christensen.  Measurers E. C. Beshore,
    E. J. Christensen, G. J. Garradd, A. R. Gibbs, A. D. Grauer, R. E. Hill,
    R. A. Kowalski, S. M. Larson, R. H. McNaught.  1.5-m reflector + CCD.

Orbital elements:
2006 OV5                                                 Earth MOID = 0.1775 AU
Epoch 2006 July 4.0 TT = JDT 2453920.5                  MPC
M   1.86324              (2000.0)            P               Q
n   0.19504606     Peri.  154.72889     +0.67978567     +0.72614324
a   2.9447240      Node   157.62628     -0.71043997     +0.68683984
e   0.6038502      Incl.   15.69834     -0.18211673     +0.03109704
P   5.05           H   19.1           G   0.15
From 17 observations 2006 July 21-23.

Ephemeris:
2006 OV5                 a,e,i = 2.94, 0.60, 16                  q = 1.1666
Date    TT    R. A. (2000) Decl.     Delta      r     Elong.  Phase     V
2006 07 24    02 18.33   +12 26.5    0.785    1.222    84.4    55.8    21.0
2006 08 03    02 46.84   +10 45.2    0.790    1.263    87.9    53.4    21.1
2006 08 13    03 10.78   +08 39.1    0.795    1.313    92.3    50.5    21.1
2006 08 23    03 29.90   +06 12.0    0.798    1.370    97.8    47.0    21.1
2006 09 02    03 43.91   +03 27.6    0.800    1.433   104.2    43.0    21.1
2006 09 12    03 52.61   +00 31.3    0.802    1.501   111.6    38.6    21.0
2006 09 22    03 55.88   -02 30.2    0.808    1.572   119.9    33.6    21.0
2006 10 02    03 53.81   -05 26.2    0.821    1.645   128.7    28.4    21.0
2006 10 12    03 47.03   -08 03.0    0.845    1.719   137.5    23.1    21.0
2006 10 22    03 36.69   -10 06.7    0.885    1.795   145.3    18.4    21.1
2006 11 01    03 24.51   -11 25.5    0.943    1.871   150.2    15.3    21.2
2006 11 11    03 12.44   -11 55.4    1.022    1.947   150.7    14.4    21.4
2006 11 21    03 02.06   -11 40.1    1.122    2.022   146.8    15.5    21.7

Timothy B. Spahr             (C) Copyright 2006 MPC           M.P.E.C. 2006-O38

Read MPEC 2006-O37 Read MPEC 2006-O39


Our Web policy. Index to the CBAT/MPC/ICQ pages.


Valid HTML 4.01!